STARLINK-35528, 66094

Orbit data source: Space-Track

STARLINK-35528, 66094 is a payload satellite owned by SpaceX/Seattle (US) in LEO that was launched on Sun, 19 Oct 2025 UTC via an FALCON 9 launch vehicle from the Air Force Western Test Range (AFWTR). Payload-class satellites include a variety of spacecraft equipped with specific instruments for various scientific and technological missions. These include communications satellites like Starlink; space stations such as the ISS; scientific satellites like the Hubble; Earth observation satellites from companies like Planet Labs, Umbra, and HawkEye 360; GPS; miniature CubeSats for education and research; and military/defense satellites.

Loading next visibility...
Identifier
66094, 2025-236J
Orbit
LEO
Country
Flag of USUS
Related business
Manufacturer
SpaceX/Seattle
Mission
Operational Commercial Communications
Bus & Motor
STARLINK V2MO, Unknown motor
Mass
575 kg wet, ~530 kg dry
Launch date (UTC)
2025-10-19 (6 months ago)
Launch vehicle
FALCON 9
Launch site
Air Force Western Test Range (AFWTR)
Object type
Payload
Rocket body
Debris
Shape & HBR
Box + 2 Pan, 17.7 m
Radar Cross Section
36.964 m²

Expand to show TLE details & history
Last TLE update: 15 hours ago

TLE from 15 hours ago
0 STARLINK-35528
1 66094U 25236J   26095.05746452 -.00018829  00000-0 -62574-3 0  9995
2 66094  53.1592 341.2559 0001287  79.7528 280.3618 15.30171333 26987
Epoch: 2026-04-05T01:22Z
TLE epoch observation values (Epoch: 2026-04-05T01:22:44.934Z)
Latitude
-0.00001°
Longitude
127.20032°
Altitude
476.042 km
Speed
7.629 km/s
True Right ascension
22h 45m 01s
True Declination
0° 00' 00"
Sunlit
Object was in daylight at epoch
Visualization orbit readout
Latitude
Unknown
Longitude
Unknown
Altitude
Unknown
Speed
Unknown
Apparent Right ascension
Unknown
Apparent Declination
Unknown
Sunlit
N/A
Visualization observer readout
Local Sidereal Time
21:54:11
Azimuth
Unknown
Elevation
Unknown
Doppler factor
Unknown
Orbital elements
Apogee altitude
476.439 km
Perigee altitude
474.675 km
Semi-major axis
6,853.694 km
Eccentricity
0.00013
Inclination
53.1592°
RAAN
341.2559°
Arg. of periapsis
79.7528°
True anomaly
280.34729°
Mean anomaly
280.3618°
Eccentric anomaly
280.35455°
Mean motion
3.82522 °/min
Orbital period
94.11 mins
BSTAR
-0.00062574
Loading maneuver chart data...
Computing Atmospheric mass density...
Loading historical data...
Loading historical data...
Loading historical data...
Loading historical data...
Loading historical data...
Loading historical data...
Loading historical data...

Documentation

Showing up to 5 results
|